Location: East Horndon
(51.5667°N, 0.3500°E)
Time: 07:11:41
(UTC+00:00)

USA 267 - Pass Details

Date: 08 November 2025
Orbit: 1100 x 1108 km, 123.0° (Epoch: 21 November)

Event Time Altitude Azimuth Distance (km) Brightness Sun altitude
Rises 04:54:51 0° 63° (ENE) 3,924 7.2 -20.3°
Reaches altitude 10° 04:57:20 10° 62° (ENE) 2,964 6.4 -19.9°
Maximum altitude 05:03:51 74° 339° (NNW) 1,145 3.2 -18.9°
Enters shadow 05:07:39 27° 260° (W) 1,968 4.0 -18.3°
